• In Deutschland
  • Länderverzeichnis
  • Für 7 Tage
  • Wassertemperatur
  • Satellitenkarten
  • Wetterkarte
  • Widgets
  • user-avatar
    Anmelden

    Stündliche Wetter Kipungo

    Heute, 25 Februar, Sonntag

    Zeit Temperatur Niederschläge Wind Luftdruck Luftfeuchtigkeit
    00:00 +19°C° 0 mm 1 m/S 652 mmHg 92%
    01:00 +20°C° 0 mm 1 m/S 652 mmHg 93%
    02:00 +19°C° 0,1 mm 1 m/S 652 mmHg 93%
    03:00 +19°C° 0,1 mm 1 m/S 652 mmHg 93%
    04:00 +19°C° 0,1 mm 1 m/S 652 mmHg 93%
    05:00 +20°C° 0 mm 1 m/S 652 mmHg 92%
    06:00 +20°C° 0 mm 1 m/S 652 mmHg 91%
    07:00 +21°C° 0 mm 1 m/S 653 mmHg 89%
    08:00 +23°C° 0,1 mm 1 m/S 654 mmHg 80%
    09:00 +25°C° 0,1 mm 1 m/S 654 mmHg 72%
    10:00 +27°C° 0,1 mm 1 m/S 655 mmHg 64%
    11:00 +28°C° 0,2 mm 2 m/S 654 mmHg 60%
    12:00 +29°C° 0,2 mm 2 m/S 654 mmHg 55%
    13:00 +29°C° 0 mm 2 m/S 654 mmHg 58%
    14:00 +28°C° 0,7 mm 2 m/S 653 mmHg 61%
    15:00 +27°C° 0,7 mm 2 m/S 653 mmHg 64%
    16:00 +27°C° 0,7 mm 2 m/S 652 mmHg 67%
    17:00 +25°C° 0,5 mm 2 m/S 652 mmHg 73%
    18:00 +23°C° 0,5 mm 2 m/S 652 mmHg 79%
    19:00 +21°C° 0,5 mm 2 m/S 652 mmHg 85%
    20:00 +20°C° 0,1 mm 2 m/S 652 mmHg 86%
    21:00 +20°C° 0,1 mm 2 m/S 653 mmHg 86%
    22:00 +19°C° 0,1 mm 2 m/S 653 mmHg 87%
    23:00 +19°C° 0 mm 2 m/S 653 mmHg 88%

    Morgen, 26 Februar, Montag

    Zeit Temperatur Niederschläge Wind Luftdruck Luftfeuchtigkeit
    00:00 +19°C° 0 mm 2 m/S 653 mmHg 88%
    01:00 +18°C° 0 mm 2 m/S 652 mmHg 89%
    02:00 +19°C° 0 mm 1 m/S 652 mmHg 90%
    03:00 +18°C° 0 mm 1 m/S 652 mmHg 92%
    04:00 +18°C° 0 mm 1 m/S 652 mmHg 93%
    05:00 +18°C° 0 mm 1 m/S 652 mmHg 91%
    06:00 +18°C° 0 mm 1 m/S 652 mmHg 89%
    07:00 +19°C° 0 mm 1 m/S 652 mmHg 88%
    08:00 +22°C° 0 mm 1 m/S 653 mmHg 76%
    09:00 +25°C° 0 mm 1 m/S 654 mmHg 65%
    10:00 +28°C° 0 mm 1 m/S 655 mmHg 53%
    11:00 +29°C° 0 mm 1 m/S 655 mmHg 49%
    12:00 +31°C° 0 mm 1 m/S 655 mmHg 45%
    13:00 +32°C° 0 mm 1 m/S 655 mmHg 40%
    14:00 +31°C° 0 mm 1 m/S 654 mmHg 44%
    15:00 +30°C° 0 mm 1 m/S 653 mmHg 48%
    16:00 +29°C° 0 mm 1 m/S 652 mmHg 52%
    17:00 +27°C° 0 mm 1 m/S 652 mmHg 57%
    18:00 +25°C° 0 mm 2 m/S 652 mmHg 63%
    19:00 +24°C° 0 mm 2 m/S 652 mmHg 68%
    20:00 +21°C° 0 mm 2 m/S 652 mmHg 73%
    21:00 +20°C° 0 mm 2 m/S 652 mmHg 79%
    22:00 +19°C° 0 mm 2 m/S 653 mmHg 84%
    23:00 +19°C° 0 mm 2 m/S 652 mmHg 87%

    übermorgen, 27 Februar, Dienstag

    Zeit Temperatur Niederschläge Wind Luftdruck Luftfeuchtigkeit
    00:00 +18°C° 0 mm 2 m/S 652 mmHg 91%
    01:00 +19°C° 0 mm 1 m/S 652 mmHg 94%
    02:00 +18°C° 0 mm 1 m/S 652 mmHg 95%
    03:00 +18°C° 0 mm 1 m/S 652 mmHg 95%
    04:00 +18°C° 0 mm 1 m/S 651 mmHg 96%
    05:00 +18°C° 0 mm 1 m/S 652 mmHg 94%
    06:00 +19°C° 0 mm 1 m/S 652 mmHg 92%
    07:00 +19°C° 0 mm 1 m/S 653 mmHg 90%
    08:00 +22°C° 0 mm 1 m/S 653 mmHg 78%
    09:00 +25°C° 0 mm 1 m/S 654 mmHg 65%
    10:00 +29°C° 0 mm 1 m/S 655 mmHg 53%
    11:00 +29°C° 0 mm 1 m/S 655 mmHg 48%
    12:00 +30°C° 0 mm 1 m/S 654 mmHg 44%
    13:00 +31°C° 0 mm 1 m/S 654 mmHg 40%
    14:00 +31°C° 0 mm 1 m/S 653 mmHg 40%
    15:00 +31°C° 0 mm 1 m/S 652 mmHg 41%
    16:00 +30°C° 0 mm 1 m/S 652 mmHg 42%
    17:00 +28°C° 0,1 mm 1 m/S 652 mmHg 48%
    18:00 +26°C° 0,1 mm 1 m/S 652 mmHg 54%
    19:00 +24°C° 0,1 mm 1 m/S 651 mmHg 60%
    20:00 +23°C° 0 mm 1 m/S 652 mmHg 65%
    21:00 +22°C° 0 mm 1 m/S 652 mmHg 70%
    22:00 +21°C° 0 mm 1 m/S 653 mmHg 74%
    23:00 +21°C° 0 mm 1 m/S 653 mmHg 77%

    28 Februar, Mittwoch

    Zeit Temperatur Niederschläge Wind Luftdruck Luftfeuchtigkeit
    00:00 +19°C° 0 mm 2 m/S 652 mmHg 80%
    01:00 +19°C° 0 mm 2 m/S 652 mmHg 83%
    02:00 +20°C° 0 mm 1 m/S 652 mmHg 85%
    03:00 +19°C° 0 mm 1 m/S 652 mmHg 86%
    04:00 +19°C° 0 mm 1 m/S 651 mmHg 88%
    05:00 +19°C° 0 mm 1 m/S 652 mmHg 87%
    06:00 +19°C° 0 mm 1 m/S 652 mmHg 86%
    07:00 +20°C° 0 mm 1 m/S 653 mmHg 86%
    08:00 +22°C° 0 mm 1 m/S 654 mmHg 75%
    09:00 +25°C° 0 mm 1 m/S 655 mmHg 64%
    10:00 +28°C° 0 mm 1 m/S 655 mmHg 54%
    11:00 +29°C° 0,1 mm 1 m/S 655 mmHg 49%
    12:00 +29°C° 0,1 mm 1 m/S 654 mmHg 44%
    13:00 +30°C° 0,1 mm 2 m/S 654 mmHg 40%
    14:00 +30°C° 0,1 mm 2 m/S 653 mmHg 42%
    15:00 +29°C° 0,1 mm 2 m/S 653 mmHg 45%
    16:00 +29°C° 0,1 mm 2 m/S 652 mmHg 48%
    17:00 +27°C° 0 mm 2 m/S 652 mmHg 55%
    18:00 +25°C° 0 mm 3 m/S 652 mmHg 62%
    19:00 +22°C° 0 mm 3 m/S 652 mmHg 69%
    20:00 +21°C° 0 mm 3 m/S 653 mmHg 74%
    21:00 +20°C° 0 mm 2 m/S 653 mmHg 80%
    22:00 +19°C° 0 mm 2 m/S 654 mmHg 85%
    23:00 +19°C° 0 mm 2 m/S 653 mmHg 88%

    1 März, Donnerstag

    Zeit Temperatur Niederschläge Wind Luftdruck Luftfeuchtigkeit
    00:00 +18°C° 0 mm 2 m/S 653 mmHg 90%
    01:00 +18°C° 0 mm 2 m/S 653 mmHg 92%
    02:00 +18°C° 0 mm 2 m/S 653 mmHg 93%
    03:00 +17°C° 0 mm 2 m/S 652 mmHg 93%
    04:00 +17°C° 0 mm 2 m/S 652 mmHg 93%
    05:00 +17°C° 0 mm 2 m/S 652 mmHg 92%
    06:00 +18°C° 0 mm 2 m/S 653 mmHg 92%
    07:00 +19°C° 0 mm 1 m/S 653 mmHg 91%
    08:00 +21°C° 0 mm 1 m/S 654 mmHg 77%
    09:00 +24°C° 0 mm 1 m/S 654 mmHg 62%
    10:00 +27°C° 0 mm 1 m/S 655 mmHg 48%
    11:00 +28°C° 0 mm 1 m/S 655 mmHg 43%
    12:00 +29°C° 0 mm 2 m/S 654 mmHg 39%
    13:00 +31°C° 0 mm 2 m/S 654 mmHg 34%
    14:00 +30°C° 0 mm 2 m/S 653 mmHg 36%
    15:00 +30°C° 0 mm 2 m/S 653 mmHg 37%
    16:00 +30°C° 0 mm 2 m/S 652 mmHg 39%
    17:00 +28°C° 0 mm 2 m/S 652 mmHg 47%
    18:00 +25°C° 0 mm 3 m/S 652 mmHg 55%
    19:00 +22°C° 0 mm 3 m/S 651 mmHg 63%
    20:00 +21°C° 0 mm 3 m/S 652 mmHg 67%
    21:00 +20°C° 0 mm 3 m/S 652 mmHg 70%
    22:00 +19°C° 0 mm 3 m/S 652 mmHg 74%
    23:00 +19°C° 0 mm 3 m/S 652 mmHg 77%

    2 März, Freitag

    Zeit Temperatur Niederschläge Wind Luftdruck Luftfeuchtigkeit
    00:00 +18°C° 0 mm 3 m/S 652 mmHg 81%
    01:00 +17°C° 0 mm 3 m/S 651 mmHg 85%
    02:00 +17°C° 0 mm 2 m/S 651 mmHg 88%
    03:00 +16°C° 0 mm 2 m/S 651 mmHg 90%
    04:00 +16°C° 0 mm 1 m/S 650 mmHg 92%
    05:00 +16°C° 0 mm 1 m/S 651 mmHg 91%
    06:00 +16°C° 0 mm 1 m/S 651 mmHg 89%
    07:00 +18°C° 0 mm 1 m/S 652 mmHg 88%
    08:00 +20°C° 0 mm 1 m/S 653 mmHg 74%
    09:00 +23°C° 0 mm 1 m/S 653 mmHg 60%
    10:00 +26°C° 0 mm 2 m/S 654 mmHg 46%
    11:00 +27°C° 0 mm 2 m/S 654 mmHg 42%
    12:00 +29°C° 0 mm 2 m/S 653 mmHg 37%
    13:00 +30°C° 0 mm 2 m/S 653 mmHg 32%
    14:00 +30°C° 0 mm 3 m/S 652 mmHg 35%
    15:00 +29°C° 0 mm 3 m/S 652 mmHg 38%
    16:00 +29°C° 0 mm 3 m/S 651 mmHg 41%
    17:00 +27°C° 0 mm 3 m/S 651 mmHg 46%
    18:00 +24°C° 0 mm 3 m/S 651 mmHg 51%
    19:00 +21°C° 0 mm 3 m/S 651 mmHg 56%
    20:00 +20°C° 0 mm 2 m/S 651 mmHg 56%
    21:00 +19°C° 0 mm 2 m/S 651 mmHg 56%
    22:00 +18°C° 0 mm 2 m/S 652 mmHg 55%
    23:00 +18°C° 0 mm 2 m/S 651 mmHg 59%
    Mehr zeigen